This is the latest recevied weather packets stored in our database for station/object F5OZP-13. If no packets are shown the sender has not sent any weather packets the latest 10 day(s).
| Time | Temp. | Humidity | Pressure | Rain* | Wind** | Luminosity | Snow |
|---|---|---|---|---|---|---|---|
| 1777642110 | 25.56° C | 99% | 1020.2 hPa | - | - | 37 W/m² | - |
| 1777641802 | 26.67° C | 99% | 1020.2 hPa | - | - | 38 W/m² | - |
| 1777641494 | 26.67° C | 99% | 1020.2 hPa | - | - | 39 W/m² | - |
| 1777641186 | 26.11° C | 99% | 1020.3 hPa | - | - | 39 W/m² | - |
| 1777640890 | 26.11° C | 99% | 1020.2 hPa | - | - | 38 W/m² | - |
| 1777640574 | 26.11° C | 99% | 1020.3 hPa | - | - | 38 W/m² | - |
| 1777640266 | 25.56° C | 99% | 1020.4 hPa | - | - | 38 W/m² | - |
| 1777639958 | 26.11° C | 99% | 1020.4 hPa | - | - | 0 W/m² | - |
| 1777639650 | 25.56° C | 99% | 1020.4 hPa | - | - | 39 W/m² | - |
| 1777639342 | 26.11° C | 99% | 1020.5 hPa | - | - | 39 W/m² | - |
| 1777639042 | 26.67° C | 99% | 1020.4 hPa | - | - | 43 W/m² | - |
| 1777638725 | 24.44° C | 99% | 1020.4 hPa | - | - | 46 W/m² | - |
| 1777638418 | 25° C | 99% | 1020.6 hPa | - | - | 44 W/m² | - |
| 1777638109 | 25° C | 99% | 1020.7 hPa | - | - | 0 W/m² | - |
| 1777637801 | 24.44° C | 99% | 1020.7 hPa | - | - | 5 W/m² | - |
| 1777637493 | 25° C | 99% | 1020.8 hPa | - | - | 49 W/m² | - |
| 1777637198 | 22.78° C | 99% | 1020.8 hPa | - | - | 9 W/m² | - |
| 1777636882 | 22.22° C | 99% | 1021 hPa | - | - | 49 W/m² | - |
| 1777636573 | 21.67° C | 99% | 1021 hPa | - | - | 33 W/m² | - |
| 1777636265 | 21.67° C | 99% | 1021 hPa | - | - | 0 W/m² | - |
| 1777635957 | 23.33° C | 99% | 1021 hPa | - | - | 0 W/m² | - |
| 1777635649 | 23.33° C | 99% | 1021 hPa | - | - | 0 W/m² | - |
| 1777635349 | 25° C | 99% | 1020.9 hPa | - | - | 41 W/m² | - |
| 1777635033 | 23.33° C | 99% | 1021 hPa | - | - | 44 W/m² | - |
| 1777634725 | 24.44° C | 99% | 1021.2 hPa | - | - | 43 W/m² | - |
* Rain since midnight (hover to see other rain measurements)
** Current wind speed in m/s (hover to see current wind gust speed)